TimeCST,TemperatureF,Dew PointF,Humidity,Sea Level PressureIn,VisibilityMPH,Wind Direction,Wind SpeedMPH,Gust SpeedMPH,PrecipitationIn,Events,Conditions,WindDirDegrees,DateUTC
12:15 AM,39.0,32.0,76,30.10,10.0,Calm,Calm,-,N/A,,Overcast,0,2012-11-06 06:15:00
12:35 AM,38.8,32.5,78,30.10,10.0,Calm,Calm,-,N/A,,Overcast,0,2012-11-06 06:35:00
12:55 AM,38.7,32.9,80,30.10,10.0,NNE,4.6,-,N/A,,Overcast,20,2012-11-06 06:55:00
1:15 AM,38.8,32.0,76,30.09,10.0,NE,4.6,-,N/A,,Overcast,50,2012-11-06 07:15:00
1:35 AM,38.8,32.0,76,30.09,10.0,ENE,5.8,-,N/A,,Overcast,60,2012-11-06 07:35:00
1:55 AM,38.7,32.4,78,30.08,10.0,ENE,4.6,-,N/A,,Overcast,60,2012-11-06 07:55:00
2:15 AM,38.5,32.4,79,30.07,10.0,Calm,Calm,-,N/A,,Overcast,0,2012-11-06 08:15:00
2:35 AM,38.7,32.2,78,30.07,10.0,Calm,Calm,-,N/A,,Overcast,0,2012-11-06 08:35:00
2:55 AM,38.3,32.9,81,30.06,10.0,Calm,Calm,-,N/A,,Overcast,0,2012-11-06 08:55:00
3:15 AM,38.3,32.9,81,30.05,10.0,East,3.5,-,N/A,,Overcast,90,2012-11-06 09:15:00
3:35 AM,38.3,33.1,81,30.05,10.0,Calm,Calm,-,N/A,,Overcast,0,2012-11-06 09:35:00
3:55 AM,38.3,32.9,81,30.06,10.0,Calm,Calm,-,N/A,,Overcast,0,2012-11-06 09:55:00
4:15 AM,38.3,33.3,82,30.07,10.0,Calm,Calm,-,N/A,,Overcast,0,2012-11-06 10:15:00
4:35 AM,38.3,32.5,80,30.07,10.0,Calm,Calm,-,N/A,,Overcast,0,2012-11-06 10:35:00
4:55 AM,38.5,32.9,80,30.06,10.0,Calm,Calm,-,N/A,,Overcast,0,2012-11-06 10:55:00
5:15 AM,38.5,33.1,81,30.05,10.0,Calm,Calm,-,N/A,,Overcast,0,2012-11-06 11:15:00
5:35 AM,38.3,32.9,81,30.04,10.0,Calm,Calm,-,N/A,,Overcast,0,2012-11-06 11:35:00
5:55 AM,38.3,33.6,83,30.03,10.0,Calm,Calm,-,N/A,,Overcast,0,2012-11-06 11:55:00
6:15 AM,38.3,34.0,84,30.03,10.0,Calm,Calm,-,N/A,,Overcast,0,2012-11-06 12:15:00
6:35 AM,38.3,33.3,82,30.02,10.0,SE,3.5,-,N/A,,Overcast,140,2012-11-06 12:35:00
6:55 AM,38.5,33.1,81,30.02,10.0,Calm,Calm,-,N/A,,Overcast,0,2012-11-06 12:55:00
7:15 AM,38.5,33.3,81,30.03,10.0,Calm,Calm,-,N/A,,Overcast,0,2012-11-06 13:15:00
7:35 AM,38.5,33.8,83,30.03,7.0,Calm,Calm,-,N/A,,Overcast,0,2012-11-06 13:35:00
7:55 AM,39.0,34.3,83,30.03,7.0,Calm,Calm,-,N/A,,Overcast,0,2012-11-06 13:55:00
8:15 AM,39.2,34.5,83,30.02,7.0,SSE,3.5,-,N/A,,Overcast,150,2012-11-06 14:15:00
8:35 AM,39.7,34.3,81,30.02,7.0,South,5.8,-,N/A,,Overcast,180,2012-11-06 14:35:00
8:55 AM,40.1,34.5,80,30.02,7.0,South,4.6,-,N/A,,Overcast,180,2012-11-06 14:55:00
9:15 AM,40.8,35.2,80,30.01,7.0,South,3.5,-,N/A,,Overcast,180,2012-11-06 15:15:00
9:35 AM,41.2,35.4,80,30.01,7.0,South,3.5,-,N/A,,Overcast,190,2012-11-06 15:35:00
9:55 AM,41.7,35.6,79,30.01,7.0,South,4.6,-,N/A,,Overcast,190,2012-11-06 15:55:00
10:15 AM,42.3,35.6,77,30.00,7.0,South,5.8,-,N/A,,Overcast,180,2012-11-06 16:15:00
10:35 AM,43.0,35.1,74,30.00,10.0,South,6.9,-,N/A,,Overcast,190,2012-11-06 16:35:00
10:55 AM,43.0,36.0,76,29.98,7.0,South,9.2,-,N/A,Rain,Light Rain,180,2012-11-06 16:55:00
11:15 AM,43.2,36.5,77,29.98,7.0,South,6.9,-,N/A,Rain,Light Rain,190,2012-11-06 17:15:00
11:35 AM,43.7,36.9,77,29.96,7.0,South,5.8,-,N/A,,Overcast,190,2012-11-06 17:35:00
11:55 AM,44.1,37.4,77,29.95,7.0,South,6.9,-,N/A,Rain,Light Rain,190,2012-11-06 17:55:00
12:15 PM,44.2,38.3,80,29.94,5.0,SSW,5.8,-,N/A,Rain,Light Rain,200,2012-11-06 18:15:00
12:35 PM,44.1,38.5,81,29.94,5.0,South,5.8,-,N/A,Rain,Light Rain,190,2012-11-06 18:35:00
12:55 PM,44.1,39.6,84,29.94,4.0,SSW,3.5,-,N/A,Rain,Light Rain,210,2012-11-06 18:55:00
1:15 PM,43.9,39.7,85,29.93,4.0,SSW,3.5,-,0.01,Rain,Light Rain,210,2012-11-06 19:15:00
1:35 PM,43.7,40.3,88,29.93,3.0,SW,3.5,-,0.02,Rain,Light Rain,220,2012-11-06 19:35:00
1:55 PM,43.9,41.2,90,29.92,2.5,SW,3.5,-,0.03,Rain,Light Rain,220,2012-11-06 19:55:00
2:15 PM,43.7,41.0,90,29.92,3.0,SW,3.5,-,0.01,Rain,Light Rain,220,2012-11-06 20:15:00
2:35 PM,43.5,41.0,91,29.91,4.0,South,6.9,-,0.03,Rain,Rain,180,2012-11-06 20:35:00
2:55 PM,43.7,41.5,92,29.91,2.5,South,5.8,-,0.04,Rain,Rain,170,2012-11-06 20:55:00
3:15 PM,43.7,41.2,91,29.91,4.0,South,5.8,-,N/A,,Drizzle,180,2012-11-06 21:15:00
3:35 PM,43.7,41.7,93,29.90,2.5,South,5.8,-,0.01,Rain,Rain,170,2012-11-06 21:35:00
3:55 PM,43.7,41.9,93,29.90,2.5,South,6.9,-,0.02,Rain,Light Rain,170,2012-11-06 21:55:00
4:15 PM,43.2,41.5,94,29.90,4.0,South,6.9,-,N/A,,Light Drizzle,180,2012-11-06 22:15:00
4:35 PM,43.0,41.4,94,29.90,4.0,South,5.8,-,N/A,Rain,Rain,170,2012-11-06 22:35:00
4:55 PM,43.2,41.9,95,29.90,2.5,Calm,Calm,-,N/A,,Drizzle,0,2012-11-06 22:55:00
5:15 PM,43.7,42.3,95,29.90,2.5,SSW,4.6,-,N/A,Rain,Rain,210,2012-11-06 23:15:00
5:35 PM,43.7,42.3,95,29.90,2.5,SW,3.5,-,0.01,Rain,Light Rain,220,2012-11-06 23:35:00
5:55 PM,43.9,42.6,95,29.91,2.0,Calm,Calm,-,0.01,,Drizzle,0,2012-11-06 23:55:00
6:15 PM,43.9,42.8,96,29.90,2.0,Calm,Calm,-,N/A,,Drizzle,0,2012-11-07 00:15:00
6:35 PM,44.1,43.0,96,29.91,2.0,Calm,Calm,-,0.01,Rain,Light Rain,0,2012-11-07 00:35:00
6:55 PM,44.1,43.0,96,29.91,2.5,Calm,Calm,-,0.01,,Overcast,0,2012-11-07 00:55:00
7:15 PM,44.4,43.2,95,29.91,3.0,Calm,Calm,-,N/A,,Overcast,0,2012-11-07 01:15:00
7:35 PM,44.4,43.2,95,29.90,5.0,West,3.5,-,N/A,,Overcast,270,2012-11-07 01:35:00
7:55 PM,44.6,43.2,95,29.90,5.0,West,4.6,-,N/A,,Overcast,270,2012-11-07 01:55:00
8:15 PM,44.2,43.0,95,29.91,5.0,West,4.6,-,N/A,,Overcast,270,2012-11-07 02:15:00
8:35 PM,43.9,42.4,95,29.91,5.0,West,5.8,-,N/A,,Mostly Cloudy,280,2012-11-07 02:35:00
8:55 PM,43.0,41.9,96,29.91,5.0,Calm,Calm,-,N/A,,Scattered Clouds,0,2012-11-07 02:55:00
9:15 PM,42.4,41.2,95,29.91,4.0,West,3.5,-,N/A,,Scattered Clouds,260,2012-11-07 03:15:00
9:35 PM,41.9,41.0,97,29.91,4.0,West,4.6,-,N/A,,Clear,270,2012-11-07 03:35:00
9:55 PM,42.4,41.4,96,29.90,4.0,West,3.5,-,N/A,,Mostly Cloudy,270,2012-11-07 03:55:00
10:15 PM,42.1,41.0,96,29.90,3.0,Calm,Calm,-,N/A,,Overcast,0,2012-11-07 04:15:00
10:35 PM,42.4,41.5,97,29.90,4.0,Calm,Calm,-,N/A,,Overcast,0,2012-11-07 04:35:00
10:55 PM,42.8,41.9,97,29.89,4.0,WSW,3.5,-,N/A,,Overcast,250,2012-11-07 04:55:00
11:15 PM,42.8,41.9,97,29.89,4.0,West,4.6,-,N/A,,Overcast,270,2012-11-07 05:15:00
11:35 PM,42.8,41.5,95,29.90,4.0,West,3.5,-,N/A,,Overcast,270,2012-11-07 05:35:00
11:55 PM,42.8,41.5,95,29.89,4.0,Calm,Calm,-,N/A,,Overcast,0,2012-11-07 05:55:00